STARLINK-11596, 64321

Orbit data source: Space-Track

STARLINK-11596, 64321 is a payload satellite owned by SpaceX/Seattle (US) in LEO that was launched on Tue, 10 Jun 2025 UTC via an FALCON 9 launch vehicle from the Air Force Eastern Test Range (AFETR). Payload-class satellites include a variety of spacecraft equipped with specific instruments for various scientific and technological missions. These include communications satellites like Starlink; space stations such as the ISS; scientific satellites like the Hubble; Earth observation satellites from companies like Planet Labs, Umbra, and HawkEye 360; GPS; miniature CubeSats for education and research; and military/defense satellites.

Loading next visibility...
Identifier
64321, 2025-124E
Orbit
LEO
Last TLE update
14 hours ago
Origin
Manufacturer
SpaceX/Seattle
Mission
Operational spacecraft
Bus & Motor
STARLINK V2M, Unknown motor
Mass
730 kg wet, ~700 kg dry
Launch date (UTC)
2025-06-10 (1 month ago)
Launch vehicle
FALCON 9
Launch site
Air Force Eastern Test Range (AFETR)
Object type
Payload
Rocket body
Debris
Shape & HBR
Unknown
Radar Cross Section
Large (>1 m²)

Expand to show TLE details & history

TLE from 14 hours ago
0 STARLINK-11596
1 64321U 25124E   25199.71451569  .00172335  00000-0  13121-2 0  9995
2 64321  42.9999 359.7779 0003439 266.3613  93.6862 15.70958889  6036
Epoch: 2025-07-18T17:08Z
TLE epoch observation values (Epoch: 2025-07-18T17:08:54.155Z)
Latitude
0.00001°
Longitude
165.79026°
Altitude
356.076 km
Speed
7.697 km/s
True Right ascension
23h 59m 06s
True Declination
0° 00' 00"
Sunlit
Object was in full shadow at epoch
Visualization orbit readout
Latitude
26.29829°
Longitude
-49.61205°
Altitude
357.085 km
Speed
7.698 km/s
Apparent Right ascension
09h 01m 36s
Apparent Declination
-5° 50' 58"
Sunlit
Object is in daylight
Visualization observer readout
Local Sidereal Time
20:17:15
Azimuth
340.76° N
Elevation
-54.502°
Doppler factor
1
Orbital elements
Apogee altitude
360.454 km
Perigee altitude
355.82 km
Semi-major axis
6,736.274 km
Eccentricity
0.00034
Inclination
42.9999°
RAAN
359.7779°
Arg. of periapsis
266.3613°
True anomaly
93.72553°
Mean anomaly
93.6862°
Eccentric anomaly
93.70586°
Mean motion
3.92567 °/min
Orbital period
91.7 mins
BSTAR
0.0013121
Loading maneuver chart data...
Loading SW <> Apogee altitude chart data...
Loading historical data...
Loading historical data...
Loading historical data...
Loading historical data...
Loading historical data...
Loading historical data...
Loading historical data...
|